GFSMW_sfc_wetblb_126.txt.gz
Wetbulb
51.35 52.52 53.92 54.31 52.15 51.78 56.86 64.69 65.92 67.12 67.86 66.88 65.53 64.99 64.85 64.95 65.71 65.80 65.96 66.23 65.72 64.85 63.95 62.95 62.41 62.99 62.49 61.37 60.62 58.99 59.09 57.39 59.98 59.23 58.56 58.50 58.16 58.31 58.77 59.11 58.78 58.01 58.51
46.25 47.96 51.56 52.89 52.92 52.53 50.90 62.51 65.56 66.58 67.72 67.44 66.89 66.32 65.85 64.98 65.65 65.74 65.20 65.80 65.74 65.32 65.04 64.23 62.90 62.59 62.08 60.56 60.52 59.41 57.11 57.69 60.44 57.16 57.54 54.76 55.63 56.02 57.68 58.03 57.59 57.30 58.01
43.62 46.45 48.27 50.35 51.32 52.99 50.45 58.37 64.77 66.41 67.94 67.64 66.54 64.03 63.02 62.15 63.28 64.98 64.98 65.41 66.30 65.85 65.44 64.45 63.26 63.15 63.10 61.88 60.74 59.60 58.85 57.04 58.97 58.74 57.05 53.18 52.08 53.66 55.90 56.56 56.72 56.40 56.47
45.49 46.69 47.83 49.55 51.51 52.18 53.74 57.84 64.56 66.19 67.65 67.38 65.88 64.63 64.19 63.10 64.11 64.88 65.19 64.74 65.39 65.27 65.02 64.11 63.55 63.34 63.35 61.93 60.97 60.27 59.74 59.21 57.54 57.15 58.75 56.72 55.46 52.22 50.60 54.91 56.22 56.40 55.88
44.10 46.04 46.96 48.91 52.25 52.93 56.05 60.91 64.37 66.26 67.05 67.09 66.16 64.84 64.04 64.15 63.17 63.68 62.73 64.13 64.21 64.58 64.19 63.85 63.15 62.43 63.15 62.83 61.75 60.71 60.13 59.73 58.41 57.87 58.12 56.53 55.82 56.47 53.03 51.07 52.80 55.25 56.54
44.64 46.24 47.01 47.94 52.08 52.87 54.69 57.37 63.26 65.13 66.00 66.61 66.01 65.04 63.60 62.38 61.89 62.30 62.20 62.78 63.07 63.27 63.39 63.37 63.26 62.87 62.80 62.60 61.95 61.26 60.60 60.02 59.63 59.32 58.78 57.63 55.55 53.99 53.37 51.51 52.73 53.00 54.65
47.53 49.08 50.79 55.23 55.63 55.83 57.09 59.11 60.75 60.86 63.82 65.06 64.97 64.76 63.47 62.60 62.09 61.94 61.73 61.79 61.46 61.72 62.08 62.66 62.28 62.40 62.53 62.34 62.10 61.33 60.93 60.24 59.35 58.91 58.90 59.44 58.17 56.85 55.83 53.38 52.75 52.20 51.96
53.04 52.91 53.83 54.91 55.47 55.75 55.77 56.86 58.05 60.03 60.95 61.31 62.47 63.07 62.80 62.68 62.24 62.19 61.39 61.12 61.33 61.46 62.03 61.73 62.01 61.95 61.84 61.71 61.75 61.28 61.03 60.61 59.72 58.45 58.68 59.34 58.60 58.06 56.66 54.74 53.09 50.41 50.37
51.81 52.15 52.77 52.70 53.39 54.19 54.73 55.53 56.80 57.98 59.58 60.31 60.68 60.31 60.84 61.76 61.54 61.25 61.14 61.09 61.40 61.55 61.71 61.47 60.96 60.50 60.89 61.21 61.15 60.84 60.30 60.25 60.05 59.37 58.60 58.97 59.05 58.94 57.40 56.53 55.36 53.05 49.39
51.16 51.18 51.11 51.38 51.75 52.50 53.28 54.27 55.59 56.41 57.67 60.19 61.44 61.89 60.86 61.26 61.92 61.22 61.11 61.60 61.73 61.69 61.39 60.61 60.24 59.33 59.77 60.23 60.22 60.21 60.28 59.99 60.11 59.80 58.43 58.16 58.97 58.73 58.10 57.09 55.72 54.92 53.14
49.66 49.65 49.79 50.34 50.20 50.79 50.75 51.21 52.32 53.58 55.85 58.83 59.75 60.84 60.45 60.21 61.10 60.50 61.21 61.49 61.23 61.00 60.96 60.68 60.14 59.78 59.20 59.24 59.40 59.61 59.73 59.37 59.56 59.82 59.33 58.07 58.90 58.32 58.30 57.73 56.46 54.97 54.09
48.19 48.43 48.33 48.40 47.93 48.11 48.20 48.45 49.80 50.77 53.27 57.39 58.46 58.89 60.43 60.30 59.73 59.74 60.15 60.08 59.86 60.00 59.51 58.71 58.50 58.20 58.24 58.70 58.82 58.59 58.81 58.69 58.47 59.06 59.25 58.52 58.44 58.12 58.22 57.73 56.60 55.37 55.06
46.61 46.24 46.07 45.68 45.32 45.37 45.96 46.44 46.77 47.59 49.92 53.46 57.13 57.31 57.79 59.61 58.48 59.23 59.77 59.39 58.74 57.91 57.15 56.67 56.11 55.57 55.49 55.85 56.23 56.95 57.39 58.07 58.29 58.53 58.55 58.66 58.65 57.71 57.88 57.62 56.23 56.00 54.77
45.87 45.07 44.37 44.10 43.82 43.96 43.84 43.90 44.52 45.38 46.94 48.75 50.24 50.65 51.63 56.53 58.49 59.21 59.38 58.38 57.70 56.75 56.03 55.81 54.39 55.29 55.35 55.37 55.29 55.51 55.59 56.09 56.77 57.47 58.17 58.63 58.51 58.02 57.60 56.92 56.17 55.13 54.64
45.56 44.97 44.37 44.05 43.38 42.76 42.92 41.61 41.56 42.83 44.13 44.42 45.26 46.07 48.48 52.13 55.41 58.35 58.21 58.04 57.26 56.55 56.13 55.09 54.42 54.89 54.71 54.81 54.74 55.00 54.81 55.05 55.49 56.13 56.95 57.67 56.27 53.20 55.19 56.70 54.57 54.63 53.34
40.64 43.30 44.18 43.86 42.80 41.59 40.68 40.45 39.64 39.58 40.70 41.17 41.23 42.43 44.77 47.23 49.51 50.79 55.95 57.25 56.69 55.73 54.86 53.68 54.38 54.06 53.66 46.86 45.05 50.12 54.24 54.34 53.93 52.87 53.05 53.43 49.70 49.90 44.86 45.05 45.05 51.84 52.84
40.01 39.17 38.73 39.00 41.76 40.37 39.72 38.02 38.28 39.83 39.36 39.08 39.24 39.95 40.66 42.74 44.29 46.65 49.49 56.39 55.97 55.31 54.56 54.40 54.30 53.62 53.20 43.78 43.96 43.05 53.13 52.31 51.78 48.72 45.83 45.32 45.54 42.34 39.10 37.04 36.32 35.46 36.41
38.42 37.45 36.91 36.66 39.19 38.83 37.50 37.34 37.28 37.67 37.62 37.35 37.21 37.79 38.14 39.16 40.89 42.48 44.01 45.96 50.50 55.12 54.52 54.02 53.80 53.28 51.99 42.87 42.69 41.42 51.39 50.00 47.64 46.91 45.65 40.71 38.49 40.73 38.47 36.49 33.71 32.76 32.96
36.46 35.70 35.74 35.48 36.99 36.03 36.32 35.43 35.00 35.73 35.62 35.05 35.20 35.49 35.89 36.73 37.58 37.83 39.32 42.49 44.25 48.95 54.10 54.18 53.50 52.75 52.01 41.78 40.51 42.69 47.09 41.32 37.91 39.00 40.50 39.72 36.86 37.12 39.71 35.57 32.52 31.56 31.44
35.45 34.21 33.87 33.25 33.62 34.20 34.74 33.50 33.06 33.06 33.43 33.94 33.69 33.78 33.73 34.58 34.77 35.74 37.18 38.86 41.67 44.79 48.36 43.03 41.99 38.62 46.06 37.93 39.41 44.27 40.89 36.41 34.11 33.73 33.63 34.60 35.01 34.56 36.09 35.72 33.49 29.19 27.92
33.92 33.80 32.41 30.53 30.78 32.64 33.78 32.87 32.14 31.91 33.20 33.41 32.99 32.11 31.82 32.59 32.75 34.45 36.04 36.59 38.26 37.00 34.44 33.37 33.37 34.06 34.45 37.29 39.03 40.50 39.46 36.16 33.13 32.21 31.44 32.39 33.31 33.40 33.68 33.83 33.14 29.36 27.42
30.79 31.19 29.56 28.89 30.00 30.96 32.32 31.73 30.41 32.16 32.54 31.83 30.77 30.35 30.02 30.53 31.04 30.59 32.43 34.73 34.91 33.31 31.94 32.09 30.78 30.75 31.67 34.19 35.75 36.26 35.98 35.44 32.75 29.77 30.64 31.52 32.29 32.04 30.66 29.18 29.00 28.12 26.62
28.18 29.41 28.07 27.97 29.27 30.84 31.19 30.38 31.22 31.35 31.10 30.15 29.03 28.81 29.01 28.85 29.35 27.80 28.17 30.50 32.65 32.70 31.73 29.36 28.13 28.02 29.35 30.15 31.90 32.23 31.47 30.97 29.45 30.28 30.92 30.74 30.20 29.32 28.03 28.21 27.68 26.21 25.11
26.71 27.54 27.08 26.82 27.37 29.57 30.41 30.91 31.58 31.11 29.81 28.89 28.11 27.88 27.56 27.42 27.98 28.18 27.86 27.38 27.99 31.49 31.11 30.95 28.52 27.35 27.07 27.59 28.04 28.81 29.48 29.64 27.58 25.94 25.28 25.07 24.95 24.29 23.78 23.59 23.63 23.52 23.54
26.26 26.39 25.85 25.84 26.23 28.38 29.21 30.62 30.89 30.65 28.65 28.14 28.19 27.24 26.98 26.81 26.59 27.38 27.34 27.35 28.16 28.82 27.03 26.38 26.75 26.88 25.25 25.96 26.98 26.28 25.01 24.71 24.43 24.01 23.69 22.56 22.11 21.33 21.20 21.35 21.84 22.19 22.32
24.60 23.90 24.35 24.60 25.18 26.42 28.07 29.50 30.56 30.19 28.32 27.13 26.83 26.50 26.30 25.82 25.69 25.67 25.93 29.89 29.10 29.52 29.62 29.12 27.62 27.75 28.57 28.94 28.61 28.10 27.59 26.62 25.74 23.07 21.23 20.46 20.57 19.79 19.84 20.02 20.24 21.11 21.23

GFSMW_sfc_wetblb_129.txt.gz
Wetbulb
43.54 45.94 48.64 51.57 50.34 48.51 52.70 61.93 65.04 66.48 67.20 66.87 65.64 65.31 65.10 65.14 65.56 66.42 66.45 66.22 65.66 64.78 63.86 62.97 62.26 62.65 62.05 61.72 60.46 57.47 57.89 56.59 58.99 59.50 58.08 57.73 58.57 59.23 59.99 60.22 59.36 58.55 58.80
42.14 44.54 46.71 46.20 49.98 49.67 49.95 56.35 63.38 65.85 67.06 66.98 66.67 66.04 65.87 65.76 65.40 66.43 66.65 66.04 65.41 64.61 63.96 62.64 62.09 63.21 61.96 60.24 59.33 57.93 56.18 57.55 60.33 57.11 57.70 54.58 55.54 57.05 58.61 59.07 58.21 57.64 58.68
41.28 42.85 44.64 46.26 46.37 47.88 48.02 54.45 61.55 64.88 66.82 67.31 66.84 64.49 63.28 63.58 64.60 64.76 65.65 65.84 65.28 64.75 64.85 63.32 63.09 62.98 62.22 60.91 60.15 59.88 59.06 57.50 59.62 59.25 57.03 53.65 52.15 53.88 56.21 57.01 57.65 57.29 56.80
41.98 43.10 44.53 45.43 46.47 47.27 49.87 51.01 59.51 64.23 66.39 67.21 66.23 64.60 64.34 63.37 64.72 65.38 65.67 65.82 65.91 65.06 65.31 64.40 63.57 63.16 63.10 61.89 61.06 60.91 60.62 59.63 58.02 58.65 59.10 56.78 54.56 51.53 50.82 55.27 56.53 57.31 56.47
41.10 42.29 44.21 46.48 47.26 48.72 50.48 50.59 56.63 63.60 65.76 66.76 66.24 64.89 64.36 64.55 64.10 65.71 65.31 64.76 65.72 65.73 65.47 64.55 63.65 63.20 63.27 62.90 61.68 60.69 60.36 60.11 59.17 58.78 58.25 55.71 55.66 55.15 52.83 51.52 53.82 55.83 56.47
41.07 42.47 44.93 46.49 44.70 51.62 51.34 56.26 57.15 63.04 65.70 66.48 65.96 65.13 64.44 63.49 63.02 64.11 64.19 64.27 64.28 64.62 64.17 64.11 63.59 63.64 63.28 62.62 61.57 61.43 60.60 59.71 60.03 59.49 59.04 57.97 55.96 53.51 51.59 50.75 53.26 53.70 55.37
39.27 40.25 42.34 43.61 51.91 53.96 54.70 56.47 61.45 63.26 65.66 65.89 65.47 65.24 64.75 63.51 62.98 63.31 62.75 63.10 62.90 63.10 63.23 63.51 63.01 62.86 63.08 63.01 62.42 61.60 60.86 60.37 59.63 59.00 58.88 59.19 58.73 57.10 56.23 54.19 53.41 53.09 52.82
50.39 52.06 52.71 53.23 54.52 54.93 56.23 57.87 60.22 60.85 64.58 65.85 65.16 64.91 63.32 63.28 62.83 62.89 63.12 62.76 62.44 62.66 63.28 63.18 63.25 62.93 62.62 62.64 62.33 61.74 61.26 60.64 60.00 59.41 59.36 59.30 59.44 58.89 57.05 55.08 53.68 51.73 51.10
50.37 51.42 51.70 52.96 54.10 54.75 55.13 56.69 58.87 60.06 60.82 61.10 60.74 61.46 62.64 62.63 62.22 62.54 62.45 62.34 62.47 62.13 62.23 62.80 62.28 62.29 62.07 62.03 61.71 61.39 60.99 60.71 60.38 59.94 58.88 59.06 59.63 59.44 57.88 57.29 55.80 53.64 50.19
50.21 50.39 50.50 50.93 50.84 52.14 53.19 53.86 55.73 57.37 59.16 60.41 61.29 61.18 60.83 61.32 61.53 61.57 60.92 60.73 61.06 60.77 61.49 61.28 61.14 61.01 61.19 61.21 61.10 60.85 60.75 60.30 60.25 60.14 59.16 58.57 59.22 59.44 58.51 57.41 56.46 55.90 53.66
49.21 50.21 49.22 49.05 49.27 50.17 50.55 50.74 51.97 53.34 55.91 58.22 59.56 60.43 60.73 61.36 60.79 61.26 60.67 60.67 60.70 61.41 60.94 60.77 60.41 59.86 59.49 59.55 59.89 59.99 60.19 59.67 59.74 59.88 59.42 58.72 59.08 58.77 58.70 57.59 56.62 55.63 54.98
46.98 47.10 46.25 45.84 45.64 46.05 46.41 47.39 48.73 49.39 51.29 56.55 56.87 58.29 60.32 59.03 58.89 59.43 60.26 60.84 60.48 61.21 60.79 60.40 59.44 58.82 58.62 58.71 58.75 58.77 58.85 58.68 58.72 59.14 59.03 58.85 58.61 58.12 58.44 57.41 56.33 55.61 55.23
45.45 44.50 44.06 43.42 42.94 42.96 43.38 43.78 44.65 46.00 47.96 50.34 51.88 52.51 53.62 58.83 58.88 58.71 58.97 59.27 59.65 59.75 59.31 59.29 58.81 58.37 58.03 58.03 57.83 58.13 58.15 58.27 58.69 59.00 58.75 58.87 59.07 58.13 58.26 58.01 56.96 56.40 55.59
43.09 43.74 42.59 41.85 41.94 42.05 41.12 41.01 41.67 43.17 44.45 45.37 46.30 46.91 49.00 51.38 57.45 58.71 58.81 58.07 58.49 58.05 57.69 57.57 57.11 56.71 56.05 55.93 55.97 55.77 55.44 55.89 56.43 56.75 57.35 58.09 58.29 58.27 57.88 57.62 57.32 56.70 55.09
38.41 38.79 40.65 39.56 39.28 38.96 39.24 39.70 40.07 40.92 41.90 42.09 42.24 42.63 45.45 48.32 49.97 52.56 57.43 58.11 57.39 57.41 57.33 56.07 55.15 54.95 54.81 53.92 54.36 54.62 54.60 54.66 54.26 54.45 55.33 55.89 54.90 51.28 53.72 57.87 57.52 56.92 54.75
37.10 37.05 37.98 38.67 37.37 36.85 36.72 37.62 38.54 39.11 40.12 39.69 39.59 40.59 42.10 43.92 45.04 47.56 50.06 56.35 57.11 56.13 54.75 54.40 54.19 52.55 52.39 46.03 44.76 50.51 54.12 53.54 53.08 53.22 53.54 54.47 49.96 49.20 45.31 45.31 48.21 53.25 54.94
35.40 34.27 35.14 35.35 35.64 35.37 35.67 35.33 36.72 38.14 37.69 37.22 37.52 37.80 38.96 40.53 41.22 43.56 45.47 47.10 50.02 55.52 54.62 54.28 53.50 53.14 51.85 43.68 43.49 42.41 52.39 52.57 52.37 51.66 49.36 46.98 45.20 44.53 42.09 38.39 41.28 41.50 44.20
32.68 32.53 33.10 34.15 34.19 34.66 34.38 34.79 34.79 36.14 35.88 35.36 35.23 35.66 36.21 37.51 38.72 39.86 40.79 42.73 45.04 48.13 53.99 53.43 53.96 52.85 51.02 42.04 42.59 41.14 50.76 50.79 48.26 47.37 46.61 43.17 39.84 38.35 37.34 35.90 34.88 34.32 34.34
32.37 31.64 31.98 31.70 32.45 33.18 33.89 33.34 32.88 33.20 33.90 33.34 33.21 33.37 34.00 34.92 35.87 36.06 37.62 39.62 40.92 43.63 47.27 52.25 53.09 52.61 51.81 41.14 40.59 42.22 48.62 43.80 39.46 39.21 39.44 40.11 36.38 37.55 39.72 36.08 33.02 32.30 31.73
31.76 30.48 30.56 30.37 30.31 31.71 34.10 32.23 31.58 31.77 31.59 32.13 32.19 32.36 32.58 33.11 32.74 33.22 35.30 37.36 39.39 41.32 40.03 38.74 37.00 36.11 42.63 37.37 38.96 43.86 43.36 37.99 34.04 33.67 33.49 34.28 34.53 35.45 36.66 35.88 35.32 32.56 31.70
29.87 30.31 29.60 28.33 29.72 31.72 33.01 31.70 30.59 30.29 31.70 31.61 31.52 30.96 30.89 31.57 31.64 29.98 32.16 35.19 36.13 35.40 34.29 32.98 32.09 32.09 32.78 35.98 37.78 40.03 41.38 37.71 33.79 32.69 32.12 32.50 33.22 33.54 34.24 34.77 34.25 31.64 30.51
27.95 28.52 27.83 28.54 29.81 30.96 31.35 30.37 29.53 30.89 31.42 30.49 29.68 29.54 29.55 29.89 30.27 28.84 28.80 32.29 34.04 33.18 32.08 32.05 32.17 31.60 31.37 32.95 34.66 35.98 35.99 35.49 32.89 30.59 31.28 32.05 32.94 32.37 31.73 31.02 30.74 29.86 29.12
26.90 27.93 27.30 27.94 28.79 30.02 30.44 29.23 30.32 30.61 30.31 29.21 28.29 28.44 28.90 28.93 29.13 28.46 28.14 28.94 31.04 32.21 31.81 30.55 29.80 29.15 29.66 30.64 32.29 32.56 32.20 31.75 30.45 30.92 31.21 31.21 30.62 29.80 28.90 29.09 28.51 27.79 26.90
25.66 26.38 26.31 25.90 26.34 28.58 29.59 30.01 30.52 30.69 29.19 28.17 27.67 27.72 27.48 27.36 28.04 28.25 28.14 27.43 27.57 28.28 27.94 27.81 28.07 27.19 26.77 26.97 27.18 27.29 27.16 27.70 25.52 24.36 24.18 24.34 24.30 23.76 23.70 23.91 24.42 24.48 24.68
24.41 24.37 24.01 24.16 24.99 27.05 28.57 29.56 30.00 30.06 28.34 27.71 27.33 26.94 26.53 26.52 26.62 27.62 27.34 27.02 27.97 28.17 26.43 26.35 26.79 25.98 25.39 27.51 27.87 26.76 25.40 25.26 25.01 24.56 24.13 23.35 22.76 21.80 21.96 21.96 22.46 23.05 22.95
23.66 23.21 23.20 23.59 23.77 25.07 27.36 28.42 29.07 28.88 27.98 26.64 25.78 25.49 25.56 25.59 25.16 25.88 26.37 30.03 29.35 29.51 29.13 28.98 27.47 27.86 28.80 29.03 28.98 28.69 28.26 27.48 26.58 23.78 21.63 20.89 21.23 20.79 20.72 20.34 20.65 21.57 21.72

GFSMW_sfc_wetblb_132.txt.gz
Wetbulb
41.93 42.93 43.76 44.02 44.07 47.63 49.48 56.02 63.99 65.67 65.91 65.47 64.67 64.08 63.58 63.86 64.67 65.13 65.11 65.27 65.18 64.84 63.18 62.36 61.95 62.84 62.50 61.57 59.73 57.25 56.97 56.51 59.46 58.85 57.53 56.87 58.54 60.63 60.99 61.40 61.20 60.20 60.49
40.83 42.42 42.51 41.04 43.38 47.15 48.87 49.85 61.98 65.26 65.98 66.39 65.84 65.60 65.01 64.84 64.80 65.38 65.16 65.25 65.29 64.69 64.05 62.67 62.19 62.56 62.30 61.62 59.56 57.93 56.39 56.93 59.71 56.93 56.17 54.56 55.77 57.79 59.72 60.18 59.82 59.18 59.54
39.84 41.41 42.40 42.45 41.82 43.41 46.75 48.88 52.80 63.98 66.04 66.73 66.41 64.59 66.07 65.36 64.57 64.47 64.74 64.69 65.05 64.74 64.68 63.17 62.56 62.82 62.79 61.30 60.62 58.92 58.25 57.31 59.43 58.28 56.98 53.80 53.18 54.59 57.15 58.24 58.79 58.41 58.05
41.00 41.47 42.05 42.25 41.96 42.06 45.10 48.61 50.86 57.66 65.14 66.48 65.89 64.96 64.14 63.33 64.45 64.49 65.04 65.20 65.45 64.86 64.84 63.42 62.79 63.10 62.93 61.94 60.90 59.91 59.32 58.85 57.65 58.81 58.91 57.32 54.86 51.82 51.49 56.15 57.27 58.31 57.77
40.91 40.57 41.41 42.45 43.43 43.73 42.96 47.03 48.66 54.60 61.64 65.84 66.08 65.03 64.27 64.45 64.77 65.13 65.00 64.78 65.35 65.26 64.63 63.47 63.41 63.49 63.08 62.37 60.97 60.02 59.79 59.75 59.33 58.78 58.25 57.03 55.57 55.26 52.97 51.62 54.40 56.39 57.59
40.37 40.75 42.19 42.81 42.47 41.06 45.71 46.27 47.03 53.36 60.78 65.05 65.78 65.18 64.32 63.88 63.33 64.38 64.18 63.89 64.27 64.99 64.83 64.52 63.90 63.54 63.29 62.63 61.44 60.93 60.29 59.64 59.42 59.34 59.44 58.21 56.34 54.31 52.97 52.23 54.29 54.66 56.01
45.33 43.16 42.91 41.19 39.58 44.41 46.97 51.02 49.02 52.34 60.32 64.16 65.50 65.19 64.81 64.20 63.61 64.03 63.94 63.33 63.90 64.61 64.52 64.44 63.49 63.26 63.23 62.89 62.22 61.35 60.68 60.42 59.52 58.05 58.81 59.21 58.76 57.77 56.19 54.58 53.63 53.54 54.45
49.76 50.60 50.92 52.08 51.43 52.39 53.21 55.35 57.57 58.81 61.21 64.34 65.49 65.53 65.06 64.43 64.23 64.28 64.75 64.06 64.20 64.56 64.90 64.28 63.84 63.42 63.42 63.01 62.35 61.82 61.42 60.90 60.29 59.92 58.95 59.21 59.26 59.18 57.52 56.34 53.97 51.81 52.23
48.62 48.27 48.65 49.70 51.03 52.70 54.77 58.73 60.40 61.09 63.64 64.82 65.02 64.50 63.85 63.77 63.57 63.81 63.59 64.38 64.05 63.92 63.97 63.99 63.33 62.95 62.89 62.75 62.39 61.69 61.04 60.63 60.51 60.24 59.71 59.39 59.69 59.65 59.16 57.76 56.63 54.53 50.43
45.44 46.00 46.62 46.84 47.93 49.10 50.29 53.04 55.11 56.65 58.80 61.13 63.32 63.35 63.41 62.86 62.98 63.04 62.62 63.13 63.42 62.64 62.71 62.97 62.89 62.38 62.30 62.30 61.86 61.52 61.31 60.54 60.36 60.39 59.67 59.34 59.70 59.55 59.67 57.64 57.08 56.53 54.95
42.92 43.78 43.86 46.04 45.68 45.43 46.05 47.10 49.47 51.58 54.13 58.09 60.24 60.82 60.82 61.14 60.90 60.86 60.94 61.29 61.48 61.14 61.47 61.99 61.76 61.38 61.04 61.38 61.04 60.68 60.48 60.30 60.15 60.02 59.61 59.19 59.56 58.97 59.10 58.20 57.53 56.11 55.91
39.05 39.93 40.30 43.17 43.39 42.36 42.74 42.96 44.52 46.44 48.46 51.75 53.91 55.83 58.99 60.43 60.27 60.02 59.66 59.70 59.61 60.17 60.37 60.43 60.39 60.18 60.06 60.12 60.10 59.60 59.72 59.58 59.40 59.26 59.28 59.09 58.89 58.45 59.01 58.61 57.57 56.79 56.38
37.97 37.96 36.83 37.65 39.51 39.75 40.01 40.69 41.32 42.41 45.20 47.33 48.28 49.99 51.46 53.39 57.89 58.98 59.68 59.60 59.45 59.82 59.82 59.95 59.43 58.95 58.57 58.39 58.69 58.77 58.47 58.91 59.05 58.97 58.53 58.35 58.60 58.05 58.47 58.51 57.61 57.22 56.31
33.84 34.77 34.50 35.32 35.84 37.58 38.25 38.89 39.61 40.70 41.73 42.68 43.51 44.89 46.50 48.88 51.47 56.87 58.14 58.68 59.26 59.30 59.42 59.57 59.05 58.54 58.07 58.05 57.91 57.83 57.47 57.65 57.73 57.73 57.73 57.85 58.17 58.19 57.91 57.87 57.53 56.99 55.91
33.40 32.88 33.04 33.55 34.21 34.50 35.68 36.99 38.20 38.99 39.88 39.72 39.69 40.20 42.75 44.65 46.08 48.44 51.91 57.59 57.59 57.92 58.17 57.37 56.87 56.61 56.59 56.27 55.89 56.05 55.87 55.45 54.70 54.65 54.95 55.31 54.49 50.51 51.91 55.63 56.49 57.29 56.63
32.08 32.12 33.00 33.04 32.98 33.34 33.92 34.57 36.23 36.80 37.78 37.38 37.26 38.57 39.82 41.16 42.26 44.29 46.66 48.84 54.23 55.89 56.25 55.53 55.12 54.48 53.74 46.58 44.04 50.86 54.27 53.78 52.98 52.31 52.02 52.67 48.86 47.97 43.50 43.31 43.68 50.85 56.09
31.08 30.80 31.27 31.61 32.40 33.19 33.38 32.94 33.73 35.99 35.48 35.24 35.47 36.04 37.42 38.24 39.04 41.10 42.57 44.04 46.03 50.00 55.10 54.80 54.16 52.74 52.64 42.77 42.59 42.77 52.96 52.67 52.51 51.35 50.47 49.15 47.36 43.63 45.35 43.28 39.31 40.03 41.29
29.63 29.62 29.73 30.26 31.15 32.81 33.65 33.46 33.32 33.15 33.55 33.24 33.31 33.85 34.72 35.67 36.37 37.16 38.53 40.06 42.78 44.95 47.70 53.27 53.56 52.58 51.11 42.05 41.68 40.78 51.28 51.16 50.76 49.17 47.70 46.45 43.25 39.23 39.24 36.68 34.37 33.65 34.34
29.77 29.50 29.47 30.16 31.16 31.65 33.38 32.02 31.65 31.86 31.36 30.99 31.42 31.84 32.48 33.42 33.62 33.36 35.07 37.39 39.25 42.18 42.47 41.93 44.58 46.91 49.76 37.78 39.15 41.48 48.82 46.70 42.03 39.94 38.85 41.43 38.40 37.58 38.53 34.84 33.16 32.62 32.20
29.20 28.26 29.00 30.19 30.03 30.86 32.65 31.17 30.08 30.30 29.86 30.16 30.51 31.17 31.37 31.76 31.38 30.34 32.85 35.46 37.57 37.57 37.36 35.25 34.93 34.41 35.55 36.08 36.90 40.25 45.20 40.00 34.93 33.66 33.51 34.41 34.39 35.54 36.15 35.41 34.23 33.30 31.86
27.90 28.69 28.85 28.75 29.07 30.74 31.49 30.13 29.38 28.72 30.27 30.47 30.30 30.08 30.04 30.46 30.57 30.83 31.82 33.54 35.24 34.94 33.90 32.79 32.47 32.35 32.79 33.84 36.13 37.99 42.47 38.47 34.16 32.88 32.17 32.56 33.88 34.24 35.16 34.94 33.71 32.20 32.58
26.33 27.25 27.38 27.55 28.85 29.94 30.07 29.00 28.46 29.76 30.47 29.57 28.93 28.86 29.03 29.51 29.66 29.57 30.20 31.47 33.11 33.00 32.05 32.04 31.54 31.29 31.29 32.59 33.94 35.42 36.46 35.99 33.49 31.14 31.51 32.36 33.45 33.15 32.33 31.56 31.68 31.31 31.33
24.72 26.03 25.25 26.09 27.72 28.65 29.29 27.99 29.08 29.90 29.52 28.92 27.83 27.69 28.58 28.80 28.86 28.08 28.04 28.75 29.67 29.38 29.43 29.31 27.97 27.79 28.73 29.10 29.83 32.26 32.29 32.02 31.01 31.36 31.55 31.19 30.48 29.85 28.95 29.49 29.28 28.88 28.69
23.57 24.21 24.07 23.91 24.58 27.04 28.50 28.54 28.80 29.97 28.78 27.14 27.10 27.23 26.82 27.43 28.11 28.02 27.98 27.09 27.05 26.99 26.55 26.57 26.41 26.71 27.56 27.29 27.50 27.14 27.16 27.70 25.77 25.09 25.33 25.45 25.34 24.97 24.88 24.91 25.41 25.61 25.71
23.48 23.69 22.90 23.41 23.62 25.05 26.98 27.81 27.76 28.54 27.70 26.97 26.48 26.23 26.37 26.18 26.56 27.80 27.78 27.30 28.08 27.85 26.06 26.13 26.43 25.57 25.63 27.83 28.69 27.35 25.62 25.47 25.71 25.67 25.10 24.23 23.67 22.58 22.42 22.76 23.41 24.06 24.08
22.60 22.49 22.51 22.62 22.58 23.71 24.95 25.93 26.33 25.65 26.56 25.87 25.64 25.27 25.29 24.50 24.82 25.16 25.32 28.04 28.31 29.50 29.39 29.28 27.39 27.86 28.91 29.23 29.10 28.72 28.31 27.60 26.69 23.60 21.66 21.08 21.44 20.87 21.20 21.18 21.54 22.51 22.57

GFSMW_sfc_wetblb_135.txt.gz
Wetbulb
47.95 48.55 48.49 49.44 49.02 49.84 50.29 51.58 54.45 61.26 67.04 66.87 64.71 64.07 63.71 64.97 66.11 65.98 66.12 65.62 65.76 65.68 65.84 65.72 64.81 64.07 62.54 61.76 63.82 64.61 63.97 62.43 63.81 61.21 60.08 60.74 62.68 63.23 64.37 64.06 63.71 61.88 62.49
48.53 50.19 51.03 48.89 49.48 48.90 50.03 51.15 53.18 56.44 66.00 66.62 66.61 66.44 65.79 65.23 65.81 66.27 65.41 65.66 65.61 65.30 65.10 65.87 64.94 64.02 63.76 63.16 63.16 63.94 62.11 61.83 62.59 60.94 59.74 56.00 57.68 60.24 62.16 63.36 62.61 61.88 61.76
47.53 49.35 50.80 50.41 48.84 48.69 49.13 49.83 51.37 54.96 64.97 66.68 66.66 66.76 66.55 66.50 65.01 65.02 64.49 65.20 65.61 65.43 64.95 65.26 64.72 64.22 64.29 62.64 62.93 64.74 63.65 60.99 60.62 63.36 60.74 56.00 55.62 57.64 59.80 60.52 61.53 61.88 61.55
48.10 50.11 50.83 51.66 48.61 48.99 49.87 49.87 50.77 53.32 62.99 67.76 66.80 65.22 64.29 63.62 64.72 65.06 65.46 65.32 65.39 65.32 65.19 64.63 65.64 64.82 64.37 63.17 62.45 64.32 64.25 63.42 60.01 62.05 62.74 62.68 61.38 57.38 54.42 58.23 59.79 60.99 61.47
48.78 48.28 51.90 50.89 48.42 49.11 49.40 49.90 50.61 52.48 58.50 66.82 67.72 66.46 66.35 66.71 67.05 65.88 65.44 65.01 64.78 65.23 64.90 64.68 64.92 64.86 64.44 64.13 62.98 62.54 63.65 63.97 62.55 61.30 61.57 61.19 60.26 58.54 56.47 54.67 56.26 58.98 60.08
47.74 50.07 50.58 53.36 50.15 49.08 49.67 49.84 49.64 51.73 55.75 66.42 67.77 67.32 66.93 66.70 66.04 65.34 64.87 64.18 64.22 64.48 64.42 64.55 64.66 65.45 64.60 64.22 63.59 63.40 63.56 64.23 64.12 63.25 62.86 61.53 59.85 58.68 56.97 55.61 57.69 57.05 58.51
45.51 47.00 46.01 47.05 50.40 54.11 48.57 49.24 48.85 50.41 55.74 64.84 67.14 67.64 67.55 67.45 66.25 65.35 65.32 63.98 64.07 64.06 63.96 64.14 64.09 65.37 66.08 65.06 63.49 62.77 63.57 64.54 64.36 63.84 63.45 63.37 62.86 62.79 60.38 59.50 57.54 57.24 58.83
41.92 44.04 42.74 44.56 45.43 49.47 55.87 49.99 50.56 52.10 57.06 63.76 66.89 67.91 68.06 67.17 66.87 66.63 66.88 65.47 64.71 65.21 65.23 64.41 65.04 65.70 65.17 64.68 63.65 62.63 62.91 64.60 63.92 63.21 62.18 62.53 63.52 63.55 62.42 60.61 59.19 54.68 53.92
39.60 39.60 39.64 39.94 43.34 44.37 47.70 55.86 58.44 55.78 58.72 63.74 67.09 67.60 67.90 66.49 66.52 67.14 67.73 65.81 65.73 65.05 65.28 64.55 64.55 64.88 64.93 65.01 64.28 62.72 61.96 62.01 61.71 61.47 61.13 61.07 62.55 63.94 63.56 62.84 61.55 59.31 53.18
37.80 36.85 38.19 37.78 40.27 43.14 44.45 46.24 52.12 54.69 58.15 63.56 66.52 67.08 67.20 66.06 65.99 66.72 66.66 66.59 66.18 65.05 64.93 64.45 64.28 64.00 64.34 64.42 63.06 62.63 62.42 61.66 61.77 61.64 61.13 60.82 61.70 62.13 62.64 62.95 61.77 61.09 57.78
34.12 35.82 35.78 37.13 37.14 40.13 41.65 42.60 45.76 49.05 51.02 53.06 59.76 64.82 64.62 65.06 65.48 65.41 65.83 66.24 65.19 63.93 64.00 63.79 63.55 62.99 63.15 63.02 62.54 62.32 61.89 61.06 60.97 61.40 60.95 60.29 61.07 61.04 61.09 60.86 60.61 59.51 58.12
34.15 34.24 34.40 35.10 35.20 36.18 38.83 40.13 41.69 44.27 46.81 48.85 50.18 54.19 57.00 60.17 61.82 62.24 61.82 62.87 62.51 62.40 62.46 62.28 62.59 62.50 62.91 62.92 62.13 61.27 61.16 60.82 60.39 60.26 60.57 60.06 60.83 60.50 60.69 60.61 59.69 58.49 58.34
33.86 33.41 32.83 32.63 33.29 35.01 36.22 37.79 39.37 40.77 42.96 45.02 45.28 47.58 48.75 50.66 53.64 59.78 62.52 62.21 61.82 60.83 60.52 60.55 60.92 61.24 61.43 61.78 61.38 61.12 60.70 60.70 60.98 60.89 60.35 60.87 60.66 59.87 60.09 59.64 59.18 58.47 57.71
32.59 32.07 31.75 31.68 32.72 33.56 34.36 35.02 37.03 38.63 39.44 40.28 40.94 42.43 43.58 45.36 47.29 50.66 55.58 60.27 60.53 60.51 60.75 60.87 60.75 60.61 60.79 61.05 60.67 60.33 59.95 60.61 60.68 61.29 61.02 60.69 59.97 60.25 60.02 59.57 58.81 58.94 57.55
31.59 30.78 30.45 31.02 31.74 32.65 32.81 33.85 35.25 36.36 37.29 37.40 38.11 38.91 41.72 43.25 44.77 46.28 48.91 53.21 58.69 59.53 60.03 59.71 59.85 60.14 59.79 59.71 59.68 60.18 59.98 59.98 58.94 58.68 58.76 58.88 56.14 51.43 53.24 56.94 57.00 56.62 57.04
30.85 30.34 30.14 30.63 31.54 32.14 32.52 33.14 33.69 34.74 35.72 35.50 35.28 36.95 38.45 40.37 41.58 43.20 45.05 46.76 49.57 55.28 57.48 57.44 57.66 57.89 56.72 46.77 47.31 54.11 58.99 58.60 57.38 57.44 56.22 56.50 50.10 50.02 43.33 42.24 42.24 49.09 55.22
29.97 29.54 29.39 30.41 30.92 31.84 33.32 32.82 33.84 34.83 34.97 34.30 34.12 34.41 35.75 36.59 37.43 39.64 41.15 42.35 45.28 49.86 51.07 55.45 56.14 56.32 57.32 45.68 45.50 46.23 56.65 57.81 57.77 55.49 53.77 52.66 50.74 48.49 51.62 44.82 40.06 39.32 38.76
29.03 28.79 29.37 30.10 30.96 31.99 32.92 33.68 33.61 33.53 33.79 33.14 33.10 33.65 33.78 34.64 34.77 36.44 37.19 39.05 42.07 43.53 45.75 44.60 47.04 54.77 45.84 41.66 41.33 40.97 56.31 55.98 54.39 53.42 52.47 51.47 49.09 46.52 44.18 44.23 41.33 39.34 37.89
29.22 29.43 29.86 30.71 31.06 30.87 32.25 32.26 32.18 32.61 32.16 31.33 31.49 31.94 32.64 33.28 34.33 33.43 34.87 36.85 39.16 39.86 39.37 38.69 38.17 40.22 40.43 35.39 36.29 41.41 50.59 50.86 48.04 44.80 42.86 44.11 44.23 38.40 39.40 40.57 37.71 36.07 35.17
29.36 28.73 29.58 30.67 30.41 31.00 31.99 30.85 30.50 30.89 30.13 30.27 30.64 31.67 32.12 32.13 31.71 33.13 34.00 36.16 37.48 36.91 36.25 34.75 34.28 33.95 34.50 34.93 35.95 38.21 48.18 44.38 38.22 36.06 34.99 34.59 37.89 35.68 36.13 40.73 38.98 35.53 33.54
27.62 28.59 28.98 28.95 29.46 30.77 31.19 29.80 29.92 28.95 30.37 30.56 30.53 30.89 31.23 31.28 31.29 32.35 33.53 34.14 35.77 35.80 35.03 33.53 33.40 32.43 31.77 33.46 34.96 36.18 43.02 39.82 35.86 34.59 33.87 33.88 34.33 35.58 36.26 35.93 36.98 34.03 33.51
26.31 27.10 27.13 27.56 29.10 29.74 29.72 28.23 27.63 30.14 30.30 30.07 29.49 29.71 30.52 30.72 30.93 30.70 31.74 32.01 32.65 32.58 32.30 32.06 31.43 31.30 30.83 31.33 32.21 33.95 34.39 35.57 34.35 32.21 32.31 32.77 33.38 33.19 32.99 32.95 32.22 32.03 32.78
25.84 26.65 26.53 26.96 27.95 28.76 28.81 27.12 27.66 29.93 29.74 28.89 28.47 28.81 29.93 30.37 30.97 30.01 29.35 29.79 30.49 30.05 30.18 29.88 29.01 29.59 30.34 30.33 30.02 30.69 30.43 31.30 29.66 29.81 29.67 29.50 29.39 29.60 29.12 29.64 29.66 30.73 31.85
24.90 25.94 25.62 25.71 26.14 27.72 27.93 27.36 27.63 29.32 29.12 27.93 27.97 28.58 28.49 28.86 29.36 29.74 29.39 28.08 27.59 27.57 27.43 27.50 26.95 27.82 28.52 29.23 29.73 29.81 28.63 28.43 27.46 27.18 27.03 27.16 26.74 26.34 26.22 26.44 26.10 26.70 26.80
24.23 24.93 24.63 24.79 25.15 26.75 26.93 27.96 27.87 28.06 27.87 27.75 27.59 27.58 27.70 28.07 28.16 27.68 27.50 27.43 28.51 28.73 27.49 27.53 27.75 26.78 26.32 28.23 29.74 29.09 27.94 26.96 26.99 27.23 26.20 24.99 24.36 23.60 23.68 23.84 24.33 25.19 25.49
23.37 22.99 23.62 24.06 24.55 25.92 26.54 27.68 28.67 28.28 26.48 26.65 26.69 26.53 26.65 26.35 27.12 27.24 27.15 27.34 26.48 26.64 27.42 28.80 28.46 28.63 28.73 28.92 29.33 28.89 28.22 27.34 26.72 26.05 23.83 22.56 22.52 22.14 22.27 22.43 22.64 23.47 23.41

GFSMW_sfc_wetblb_138.txt.gz
Wetbulb
52.56 54.10 55.28 56.00 56.44 58.30 57.27 55.45 54.61 55.72 56.58 59.21 65.76 67.89 68.26 68.58 69.18 68.96 69.02 69.65 68.01 69.76 69.48 68.47 68.33 67.09 66.73 66.50 66.11 65.76 66.30 66.01 66.12 63.27 61.59 62.38 63.58 64.19 65.27 66.86 66.12 64.79 62.75
51.41 53.09 54.62 54.49 55.66 56.44 58.38 57.73 54.15 54.65 55.09 56.18 64.41 68.07 68.82 69.88 69.16 69.46 69.41 69.58 68.23 68.16 69.39 69.37 68.24 65.66 66.09 66.20 65.74 66.54 65.64 64.97 65.65 63.40 62.26 58.98 59.50 61.76 64.63 65.55 65.08 64.51 64.37
50.64 51.50 51.84 52.31 53.65 55.14 58.16 58.04 55.66 53.93 54.64 57.04 61.94 66.88 66.84 68.13 68.04 68.95 68.32 69.34 68.25 66.96 68.02 69.18 68.84 66.32 67.03 64.75 64.76 66.82 65.94 63.07 63.36 65.99 63.11 58.86 58.13 60.74 62.35 62.87 63.86 64.81 62.92
48.33 47.25 46.80 48.44 48.05 51.51 54.94 58.44 57.52 53.94 53.99 55.86 59.10 65.12 64.72 63.54 66.65 67.59 68.59 68.47 68.19 67.26 66.74 68.26 68.89 68.01 67.43 66.75 65.28 67.35 66.73 65.78 61.72 64.88 65.04 65.36 63.90 59.60 57.83 60.58 62.02 62.85 63.40
44.04 43.23 43.02 44.55 43.65 46.57 50.45 55.19 55.60 54.02 53.93 54.79 58.07 64.77 65.48 65.43 67.38 67.16 67.63 68.52 67.92 66.85 65.98 66.97 67.55 67.20 66.60 68.13 67.12 66.63 67.47 67.03 65.11 63.57 64.12 63.70 63.60 64.04 61.41 58.51 58.62 60.59 61.89
42.02 41.79 41.12 41.33 40.67 42.17 45.90 50.96 55.22 52.54 53.57 53.94 57.66 65.56 66.78 66.19 65.95 66.92 67.05 67.54 67.46 65.73 65.66 65.83 66.31 66.84 66.46 66.38 65.99 66.49 67.36 67.10 66.54 64.81 64.56 63.45 61.61 61.07 61.22 60.26 60.96 59.72 60.68
40.21 38.19 38.51 37.04 38.41 38.83 42.45 47.80 55.12 51.36 52.83 53.53 57.29 65.94 67.10 66.81 67.37 66.21 67.16 66.81 65.84 64.52 65.03 65.24 65.27 65.59 66.42 66.44 66.28 65.60 65.67 67.19 66.60 66.12 64.84 65.00 64.32 63.89 62.58 62.05 60.28 60.36 61.67
39.59 38.15 37.16 36.36 37.09 38.33 39.78 43.52 50.29 51.99 52.28 53.33 57.04 64.92 67.37 67.04 67.41 68.16 68.17 67.89 67.12 65.74 65.83 65.16 65.54 65.90 66.17 66.11 65.89 65.07 65.67 67.79 67.92 67.02 66.14 65.60 65.38 65.27 64.20 62.52 61.48 59.19 60.06
37.39 37.14 35.96 35.21 36.32 36.81 38.96 41.55 43.75 54.75 53.66 53.85 57.82 63.56 67.14 67.04 67.22 67.96 68.95 68.48 68.73 66.82 66.40 65.65 65.03 65.53 65.89 65.89 65.82 65.20 64.89 67.16 67.42 68.12 67.89 66.61 66.47 66.78 65.84 65.17 63.73 61.42 57.63
36.28 36.51 35.54 33.86 35.65 36.51 38.36 38.85 41.34 44.75 52.52 60.63 62.21 64.86 66.65 67.64 68.03 68.58 68.42 69.03 69.00 67.82 66.22 65.17 64.92 64.85 65.22 65.60 65.65 65.54 66.15 65.85 65.76 65.19 66.38 66.13 65.37 64.30 64.20 64.34 64.59 63.85 61.49
36.43 35.99 35.04 33.57 34.87 35.54 35.93 37.25 39.24 41.72 46.67 48.61 54.59 62.30 65.98 67.03 68.05 68.37 68.16 68.05 68.16 67.30 66.32 65.80 65.05 64.43 64.70 64.68 64.11 65.03 66.15 64.55 64.21 62.95 63.00 63.38 63.46 63.18 63.26 63.42 63.59 62.64 63.02
36.56 35.48 34.57 33.17 33.19 33.82 34.72 35.18 37.10 39.52 43.58 45.26 47.43 49.37 52.96 56.98 60.75 65.47 67.85 67.92 67.41 66.00 65.56 64.81 63.87 63.35 63.54 63.55 63.26 63.61 63.81 63.90 62.54 62.09 62.02 62.11 62.08 62.34 63.00 62.17 61.67 60.83 61.83
35.81 34.69 33.05 31.84 31.61 33.13 34.30 34.53 35.80 37.24 40.35 43.57 43.40 43.89 49.00 51.11 50.92 54.03 58.67 63.08 63.02 62.96 63.10 62.43 62.18 62.33 62.46 62.20 62.49 63.37 63.47 62.81 62.32 62.11 61.49 61.90 61.77 61.48 62.50 62.20 62.57 62.02 61.79
34.87 33.37 31.57 31.18 31.59 32.46 33.60 34.49 34.90 36.68 37.74 40.03 41.60 41.82 43.18 46.30 51.18 52.83 52.13 54.89 63.07 63.46 63.69 64.54 62.65 62.81 61.87 61.57 61.88 62.59 63.02 62.95 61.90 62.06 61.29 61.15 60.86 61.12 61.47 62.19 61.82 61.60 61.16
33.08 32.64 30.63 30.85 31.44 31.63 32.29 34.20 34.42 35.73 36.62 37.68 39.20 38.94 42.11 42.72 47.22 47.07 49.56 51.40 54.12 61.79 63.93 63.38 62.87 62.20 61.69 61.50 60.44 61.08 61.67 61.51 61.30 61.35 61.36 62.72 60.10 53.81 56.82 61.82 61.70 62.20 60.35
32.13 32.17 31.37 31.16 31.08 31.52 32.58 33.24 33.68 35.15 36.13 34.91 34.71 36.96 37.71 38.63 40.05 42.63 44.78 46.30 48.67 52.83 59.02 60.08 60.43 60.51 59.54 48.17 47.62 55.88 60.74 61.84 60.71 60.44 60.83 60.10 51.94 51.76 45.63 44.54 44.00 50.33 56.43
31.75 31.73 31.59 31.41 31.60 32.21 33.26 32.77 34.15 35.17 34.77 33.24 34.28 35.06 35.42 36.05 37.04 39.37 40.80 41.93 44.71 47.83 48.82 49.47 55.17 51.02 43.88 39.96 45.09 46.36 59.57 58.75 59.46 60.33 59.47 58.63 57.08 52.84 56.84 44.55 40.74 40.52 39.09
31.73 31.37 31.71 31.43 31.62 33.24 33.41 33.78 34.63 34.75 34.52 34.19 34.44 34.27 34.50 34.69 36.10 36.57 37.87 39.29 41.37 42.99 42.40 42.58 45.36 44.10 38.76 37.35 39.83 41.28 58.23 58.14 57.84 58.40 58.27 57.60 55.34 53.15 51.82 48.13 46.36 46.72 47.28
32.87 32.36 32.65 32.28 32.39 32.07 33.45 33.39 32.47 33.06 33.21 32.95 33.34 33.78 34.59 34.23 34.85 34.54 36.38 38.61 38.37 38.61 37.99 37.70 37.41 38.84 37.06 36.59 37.55 41.56 53.68 55.87 55.47 53.29 47.99 50.00 50.62 39.83 40.67 46.99 42.91 42.55 40.92
33.12 32.39 33.23 32.89 31.74 31.92 33.29 32.28 31.39 31.36 31.23 31.99 32.66 33.67 34.51 34.35 33.63 34.83 35.43 37.31 38.05 36.34 35.59 34.40 33.78 33.78 33.69 33.75 36.17 38.52 47.93 46.47 45.25 42.53 37.84 34.54 38.13 35.84 36.64 45.57 45.54 42.91 38.38
32.24 32.86 33.02 31.89 31.27 32.32 32.37 31.74 31.49 30.50 31.40 32.50 33.20 33.81 33.65 33.57 33.96 34.04 34.42 35.41 36.49 36.21 35.39 34.02 34.32 34.14 32.24 34.05 33.86 35.26 42.54 39.62 39.63 37.65 35.43 34.43 34.25 35.76 36.48 36.09 38.56 38.38 35.10
31.69 32.05 31.57 31.33 31.90 31.52 31.46 31.03 30.11 31.86 33.09 33.00 32.82 33.16 32.99 32.16 32.77 32.57 33.44 33.50 34.20 34.24 34.09 33.84 33.87 33.20 33.38 31.81 32.06 32.57 34.09 36.23 34.01 31.86 31.98 32.07 32.48 32.33 32.19 32.42 32.49 32.87 34.37
30.72 31.39 30.81 30.60 30.98 30.61 30.87 30.52 30.74 31.69 32.81 33.22 32.54 32.50 32.42 31.85 31.61 30.53 30.68 31.64 32.80 32.20 31.47 31.59 30.75 30.49 31.72 32.19 31.46 31.06 30.78 30.48 29.52 29.80 30.27 30.21 29.86 29.69 29.31 29.37 29.88 31.16 33.11
28.75 29.56 29.94 29.08 28.40 29.86 30.20 30.57 31.26 31.81 32.32 32.10 31.81 32.77 31.93 31.71 30.42 30.46 29.44 28.16 28.99 30.65 30.28 29.63 29.72 29.65 29.76 29.94 30.92 31.45 31.99 30.56 29.54 29.27 29.11 28.09 27.60 27.88 27.81 28.17 27.78 27.38 27.65
28.22 28.07 27.23 27.54 27.93 29.14 29.28 29.73 30.48 32.29 30.85 31.03 30.96 31.72 32.09 31.36 30.85 29.21 27.88 27.93 27.48 27.38 28.40 29.08 28.90 28.18 26.87 28.31 29.88 29.71 29.19 29.37 28.24 29.28 28.39 27.20 26.13 25.23 25.26 24.84 25.33 26.05 25.97
27.59 26.42 26.21 26.21 26.75 28.15 28.71 29.64 29.92 30.64 30.52 29.96 30.05 29.42 30.85 31.53 30.84 30.26 30.20 26.81 26.07 25.93 26.25 27.83 28.44 29.61 28.53 28.52 28.67 28.78 28.24 28.60 29.58 29.53 27.84 26.05 25.35 24.81 24.61 24.77 24.51 24.93 24.61